Location: Unspecified
(0.0000°N, 0.0000°E)
Time: 16:49:42
(UTC+00:00)

Vanguard 1 - Pass Details

Date: 13 December 2017
Orbit: 650 x 3833 km, 34.2° (Epoch: 21 July)

Event Time Altitude Azimuth Distance (km) Brightness Sun altitude
Rises 03:36:18 0° 219° (SW) 5,950 14.0 -31.3°
Reaches altitude 10° 03:40:01 10° 212° (SSW) 5,322 13.7 -30.5°
Maximum altitude 03:56:38 45° 142° (SE) 4,307 13.6 -26.8°
Drops below altitude 10° 04:18:24 10° 76° (ENE) 6,871 15.0 -21.9°
Sets 04:23:56 0° 70° (ENE) 7,740 15.3 -20.6°
